Regional Weather Roundup
Issued by NWS

Home | Current Version | Previous Version | Graphics & Text | Print | Product List | Glossary On
Versions: 1 2 3 4 5 6 7 8 9 10 11 12 13 14 15 16 17 18 19 20 21 22 23 24 25 26 27 28 29 30 31 32 33 34 35 36 37 38 39 40 41 42 43 44 45 46 47 48 49 50
000
ASUS43 KLMK 250002
RWRKY
KENTUCKY REGIONAL WEATHER ROUNDUP
NATIONAL WEATHER SERVICE LOUISVILLE KY
800 PM EDT THU JUL 24 2014

NOTE "FAIR" INDICATES FEW OR NO CLOUDS BELOW 12,000 FEET
WITH NO SIGNIFICANT WEATHER AND/OR OBSTRUCTIONS TO VISIBILITY.

KYZ001>023-026-027-061>063-070>075-250100-
WESTERN AND SOUTH CENTRAL KENTUCKY

CITY           SKY/WX    TMP DP  RH WIND       PRES   REMARKS
PADUCAH        MOSUNNY   78  59  51 NE7       30.02R
HENDERSON      MOSUNNY   75  55  50 N5        30.02R
OWENSBORO      MOSUNNY   77  55  46 N6        30.03R
HOPKINSVILLE   SUNNY     78  57  47 N10       30.00R
BOWLING GREEN  SUNNY     79  53  40 NE10      30.00R
GLASGOW        CLEAR     76  55  47 CALM      30.00R
$$

KYZ024-025-028>034-038-045-046-053-250100-
NORTH CENTRAL KENTUCKY

CITY           SKY/WX    TMP DP  RH WIND       PRES   REMARKS
LOUISVILLE/SDF MOSUNNY   76  52  43 N9        30.02R
LOUISVILLE/LOU PTSUNNY   76  52  43 NE8       30.03R
FORT KNOX      MOSUNNY   71  58  62 N2        30.03R
$$

KYZ035>037-039>044-047>052-055>060-089>105-250100-
NORTHEAST KENTUCKY

CITY           SKY/WX    TMP DP  RH WIND       PRES   REMARKS
LEXINGTON      PTCLDY    74  55  51 NE8       30.02S
COVINGTON      PTCLDY    74  51  44 N9        30.03R
FRANKFORT      MOCLDY    76  54  46 NE6       30.01S
$$

KYZ054-064>069-076>088-106>120-250100-
SOUTHEAST KENTUCKY

CITY           SKY/WX    TMP DP  RH WIND       PRES   REMARKS
JACKSON        MOCLDY    67  62  84 CALM      30.03F
LONDON         CLEAR     71  61  70 E6        30.03F
SOMERSET       CLEAR     72  59  64 E5        30.03S
MIDDLESBORO    CLOUDY    68  63  84 N8        30.03R
MONTICELLO     CLEAR     73  63  71 NE5       30.03S
$$



USA.gov is the U.S. government's official web portal to all federal, state and local government web resources and services.